Regional Weather Roundup
Issued by NWS Little Rock, AR

Home | Current Version | Previous Version | Graphics & Text | Print | Product List | Glossary On
Versions: 1 2 3 4 5 6 7 8 9 10 11 12 13 14 15 16 17 18 19 20 21 22 23 24 25 26 27 28 29 30 31 32 33 34 35 36 37 38 39 40 41 42 43 44 45 46 47 48 49 50
000
ASUS44 KLZK 290805
RWRLZK

WEATHER ROUNDUP FOR ARKANSAS
NATIONAL WEATHER SERVICE LITTLE ROCK AR
300 AM CDT FRI MAY 29 2015

NOTE: "FAIR" INDICATES FEW OR NO CLOUDS BELOW 12,000 FEET WITH NO
SIGNIFICANT WEATHER AND/OR OBSTRUCTIONS TO VISIBILITY.

ARZ001-003-010-029-290900-
NORTHWEST ARKANSAS

CITY           SKY/WX    TMP DP  RH WIND       PRES   REMARKS
FAYETTEVILLE   CLOUDY    68  62  81 S8        29.99F
FORT SMITH     CLOUDY    68  65  90 NE8       29.98F
HARRISON       CLOUDY    64  62  93 SE8       30.02F
BENTONVILLE    CLOUDY   N/A N/A N/A SE8       29.99F
ROGERS         CLOUDY    65  61  87 SE8       30.00F
SILOAM SPGS    CLOUDY    66  57  72 SE8       29.99F
HIGHFILL       CLOUDY    66  62  87 E3        29.99S
$$

ARZ004-005-016-290900-
NORTH CENTRAL ARKANSAS

CITY           SKY/WX    TMP DP  RH WIND       PRES   REMARKS
BATESVILLE     MOCLDY    66  64  94 CALM      30.01S
FLIPPIN        CLOUDY    66  63  88 CALM      30.00S
MTN HOME       CLOUDY    66  62  87 S3        30.01F
$$

ARZ040-041-290900-
WEST CENTRAL ARKANSAS

CITY           SKY/WX    TMP DP  RH WIND       PRES   REMARKS
MENA           CLOUDY    68  66  94 N3        30.00F
MOUNT IDA      CLOUDY    65  63  93 CALM      29.99F
$$

ARZ009-017-025-026-028-290900-
NORTHEAST ARKANSAS

CITY           SKY/WX    TMP DP  RH WIND       PRES   REMARKS
CORNING        FAIR      70  70 100 SE6       30.00F
JONESBORO      PTCLDY    67  66  97 E3        30.00F
NEWPORT        PTCLDY    70  70 100 SE3       30.01F
WALNUT RIDGE   MOCLDY    70  66  88 SE5       30.00F
BLYTHEVILLE    CLEAR     69  68  96 S3        30.02F
$$

ARZ022-023-033-042-044-290900-
CENTRAL ARKANSAS

CITY           SKY/WX    TMP DP  RH WIND       PRES   REMARKS
LITTLE ROCK    CLOUDY    68  65  90 CALM      30.01F
N LITTLE ROCK    N/A     67  67 100 CALM      30.01F
JACKSONVILLE   MOCLDY    65  65  99 CALM      30.00F
SEARCY         MOCLDY    65  65 100 CALM      30.02F
HOT SPRINGS    CLOUDY    68  65  90 E3        30.01S
RUSSELLVILLE   CLOUDY    68  67  96 CALM      30.01S
CLINTON        CLOUDY    63  63 100 CALM      30.04S FOG
$$

ARZ036-290900-
EAST ARKANSAS

CITY           SKY/WX    TMP DP  RH WIND       PRES   REMARKS
WEST MEMPHIS   CLEAR     69  69 100 SE7       30.00F
$$

ARZ050-053-066-070-073-290900-
SOUTHWEST ARKANSAS

CITY           SKY/WX    TMP DP  RH WIND       PRES   REMARKS
ARKADELPHIA    FAIR      67  67 100 CALM      30.01S
CAMDEN         MOCLDY    66  64  94 CALM      29.99F
TEXARKANA      CLOUDY    67  67 100 E3        29.98
EL DORADO      PTCLDY    67  66  97 CALM      30.00
DE QUEEN       CLOUDY    68  66  93 E20G32    29.96F
$$

ARZ056-057-069-290900-
SOUTHEAST ARKANSAS

CITY           SKY/WX    TMP DP  RH WIND       PRES   REMARKS
PINE BLUFF     PTCLDY    68  66  93 CALM      30.00F
STUTTGART      PTCLDY    70  66  88 CALM      30.00F
MONTICELLO     CLEAR     69  69 100 CALM      30.00F

$$




USA.gov is the U.S. government's official web portal to all federal, state and local government web resources and services.